Hermosillo, Mexico

2:50 AM MST on February 13, 2016 (GMT -0700)
Gen Ignacio Pesqueira Garcia

Weather History for MMHO - November, 2012

Change the Weather History Date:

Tuesday, November 6, 2012

  Actual Average (WUND) Record (WUND)
Temperature  
Mean Temperature 79 °F -  
Max Temperature 98 °F 80 °F - (-1)
Min Temperature 60 °F 50 °F - (-1)
Cooling Degree Days 14    
Growing Degree Days 29 (Base 50)    
Moisture  
Dew Point 48 °F    
Average Humidity 40    
Maximum Humidity 77    
Minimum Humidity 9    
Precipitation  
Precipitation 0.00 in - - ()
Sea Level Pressure  
Sea Level Pressure 29.96 in    
Wind  
Wind Speed 1 mph ()    
Max Wind Speed 8 mph    
Max Gust Speed -    
Visibility 9.5 miles    
Events      
Averages and records for this station are not official NWS values.
T = Trace of Precipitation, MM = Missing Value Source: Averaged Metar Reports

Daily Weather History Graph

Daily Weather History Graph

Search for Another Location

Airport or City:

Trip Planner

Search our weather history database for the weather conditions in past years. The results will help you decide how hot, cold, wet, or windy it might be!

Date:

Astronomy

Nov. 06, 2012 Rise Set
Actual Time 6:41 AM MST 5:34 PM MST
Civil Twilight 6:16 AM MST 5:59 PM MST
Nautical Twilight 5:48 AM MST 6:27 PM MST
Astronomical Twilight 5:20 AM MST 6:55 PM MST
Moon No Moon Rise 12:39 PM MST (11/6)
Length of Visible Light 11h 42m
Length of Day
10h 53m
Waning Gibbous, 52% of the Moon is Illuminated
Nov 6
Waning Gibbous
Nov 6
Last Quarter
Nov 13
New
Nov 20
First Quarter
Nov 28
Full

Hourly Weather History & Observations

Time (MST) Temp. Dew Point Humidity Pressure Visibility Wind Dir Wind Speed Gust Speed Precip Events Conditions
12:43 AM 68.0 °F 57.2 °F 68% 29.99 in 10.0 mi Calm Calm - N/A   Clear
1:30 AM 69 °F 55 °F 52% 29.96 in 5 mi NE 2.2 mph - -  
1:45 AM 68.0 °F 55.4 °F 64% 29.94 in 10.0 mi Calm Calm - N/A   Clear
2:43 AM 66.2 °F 57.2 °F 73% 29.98 in 10.0 mi Calm Calm - N/A   Clear
3:42 AM 62.6 °F 55.4 °F 77% 29.97 in 10.0 mi Calm Calm - N/A   Clear
4:45 AM 62.6 °F 53.6 °F 72% 29.93 in 10.0 mi Calm Calm - N/A   Clear
5:43 AM 62.6 °F 51.8 °F 68% 29.99 in 10.0 mi Calm Calm - N/A   Clear
6:48 AM 60.8 °F 53.6 °F 77% 30.01 in 10.0 mi Calm Calm - N/A   Clear
7:35 AM 61 °F 44 °F 43% 30.01 in 7 mi NE 2.2 mph - -  
7:43 AM 66.2 °F 53.6 °F 64% 29.99 in 10.0 mi Calm Calm - N/A   Clear
8:45 AM 75.2 °F 51.8 °F 44% 30.04 in 10.0 mi Calm Calm - N/A   Clear
9:49 AM 80.6 °F 48.2 °F 32% 30.03 in 10.0 mi Calm Calm - N/A   Clear
10:50 AM 83 °F 49 °F 21% 30.00 in 7 mi NE 2.2 mph - -  
10:50 AM 86.0 °F 44.6 °F 23% 29.96 in 10.0 mi Calm Calm - N/A   Clear
11:50 AM 91.4 °F 39.2 °F 16% 29.99 in 10.0 mi Calm Calm - N/A   Clear
12:46 PM 93.2 °F 39.2 °F 15% 29.96 in 10.0 mi Calm Calm - N/A   Clear
1:40 PM 95 °F 45 °F 10% 29.89 in 7 mi SE 2.2 mph - -  
1:43 PM 96.8 °F 35.6 °F 12% 29.88 in 10.0 mi Calm Calm - N/A   Clear
2:44 PM 96.8 °F 35.6 °F 12% 29.92 in 10.0 mi Calm Calm - N/A   Clear
3:45 PM 98.6 °F 37.4 °F 12% 29.91 in 12.0 mi SSW 8.1 mph - N/A   Clear
4:42 PM 96.8 °F 37.4 °F 13% 29.90 in 12.0 mi SW 8.1 mph - N/A   Clear
4:45 PM 97 °F 44 °F 9% 29.88 in 7 mi SW 2.2 mph - -  
5:44 PM 87.8 °F 37.4 °F 17% 29.92 in 12.0 mi SW 4.6 mph - N/A   Clear
6:50 PM 84.2 °F 41.0 °F 22% 29.94 in 10.0 mi SSW 5.8 mph - N/A   Clear
7:43 PM 78.8 °F 48.2 °F 34% 29.95 in 10.0 mi Calm Calm - N/A   Clear
8:41 PM 77.0 °F 55.4 °F 47% 29.96 in 10.0 mi South 3.5 mph - N/A   Clear
9:41 PM 73.4 °F 55.4 °F 53% 29.98 in 10.0 mi Calm Calm - N/A   Clear
10:30 PM 78 °F 58 °F 40% 29.95 in 5 mi NNE 2.2 mph - -  
10:40 PM 71.6 °F 55.4 °F 57% 29.94 in 10.0 mi Calm Calm - N/A   Clear
11:40 PM 69.8 °F 57.2 °F 64% 29.98 in 10.0 mi Calm Calm - N/A   Clear